Regional Weather Roundup
Issued by NWS

Home | Current Version | Previous Version | Text Only | Print | Product List | Glossary On
Versions: 1 2 3 4 5 6 7 8 9 10 11 12 13 14 15 16 17 18 19 20 21 22 23 24 25 26 27
000
ASCA42 TJSJ 190210
RWRPR
PUERTO RICO/U.S. VIRGIN ISLANDS HOURLY WEATHER ROUNDUP
NATIONAL WEATHER SERVICE SAN JUAN PR
1000 PM AST WED OCT 18 2017

PRZ001>002-007>008-010-190300-
PUERTO RICO

CITY           SKY/WX    TMP DP  RH WIND       PRES   REMARKS
SAN JUAN LMM   PTCLDY    82  79  89 E10       30.02R HX  93
PONCE          MOCLDY    77  70  78 VRB2      30.00S FOG
AGUADILLA      CLEAR     79  72  78 E6        30.03R
$$

VIZ001>002-190300-
U.S. VIRGIN ISLANDS

CITY           SKY/WX    TMP DP  RH WIND       PRES   REMARKS
CHARLOTTE AMA    N/A     82  72  69 VRB5      30.02
$$

HOURLY WEATHER ROUNDUP FOR THE NEWS MEDIA

CITY           SKY/WX    TMP DP  RH WIND       PRES   REMARKS
NEW YORK       CLEAR     62  53  72 SW12      30.30S
NEWARK         CLEAR     62  46  55 SW9       30.29R
CHICAGO        PTCLDY    64  42  44 SW15      30.03S
HARTFORD       CLEAR     49  47  93 CALM      30.28S
BOSTON         CLEAR     58  47  66 S5        30.27R
DALLAS         CLOUDY    72  44  36 SE13      30.09R
PHILADELPHIA   CLEAR     58  50  75 S6        30.32R
LOS ANGELES    PTCLDY    69  64  84 W6        29.89S
WASHINGTON DC  PTCLDY    51  44  77 S3        30.30F



USA.gov is the U.S. government's official web portal to all federal, state and local government web resources and services.